Weather in Kirovo

Russia / Republic of Khakassia     53°20′27″N   91°52′54″E
temp.,
°C
wind,
m/s
gust,
m/s
humid.,
%
clouds,
%
prec.,
mm/h
press.,
hPa
HPBL,
m
25 may, wed
wed2501:00+11ene118632 0.0 101611
04:00+11e008866 0.0 101611
07:00+14wsw127870 0.0 1015201
10:00+19wnw2161100 0.0 1014525
13:00+24nw1145100 0.0 1012784
16:00+27nw223755 0.0 10101078
19:00+25nnw2350100 0.0 101080
22:00+18w1162100 0.0 101111
26 may, thu
thu2601:00+16wsw3467100 0.0 101260
04:00+15wsw3367100 0.0 101245
07:00+17w23615 0.0 1012163
10:00+22nw2345100 0.0 1012852
13:00+26nnw34335 0.0 10112071
16:00+26nnw54350 0.0 10092193
19:00+23nnw58430 0.0 1010394
22:00+16nw12520 0.0 101112
27 may, fri
fri2701:00+13wsw11640 0.0 101110
04:00+11w11710 0.0 101110
07:00+14wsw11625 0.0 1010152
10:00+20n224347 0.0 1009836
13:00+23nw2333100 0.0 10071659
16:00+23nnw45320 0.0 10061870
19:00+19nw4842100 0.0 1006163
22:00+16ne2448100 0.0 100972
28 may, sat
sat2801:00+11nnw22673 0.0 101219
04:00+9wsw22760 0.0 101315
07:00+12w22670 0.0 1015253
10:00+17nnw11470 0.0 1014877
13:00+21ne113257 0.0 10131300
16:00+23nne112559 0.0 10111555
19:00+21nne2338100 0.0 101177
22:00+14se1146100 0.0 101210
29 may, sun
sun2901:00+12sse115073 0.0 101210
04:00+10sse11559 0.0 101210
07:00+14ene115195 0.0 1012111
10:00+20ene2237100 0.0 1010557
13:00+24nw1131100 0.0 1008990
16:00+25nnw2233100 0.0 10071044
19:00+23ne2346100 0.0 100666
22:00+17e2254100 0.0 100820